Time,TemperatureF,DewpointF,PressureIn,WindDirection,WindDirectionDegrees,WindSpeedMPH,WindSpeedGustMPH,Humidity,HourlyPrecipIn,Conditions,Clouds,dailyrainin,SolarRadiationWatts/m^2,SoftwareType,DateUTC
2013-10-07 00:00:00,50.2,33.7,29.97,SSW,202,0.0,0.0,53,0.00,,,0.00,0,Wunderground v.1.15,2013-10-07 07:00:00,
2013-10-07 00:10:00,50.1,34.1,29.98,SSW,202,0.0,0.0,54,0.00,,,0.00,0,Wunderground v.1.15,2013-10-07 07:10:00,
2013-10-07 00:15:00,49.7,34.2,29.98,SSW,202,0.0,0.0,55,0.00,,,0.00,0,Wunderground v.1.15,2013-10-07 07:15:00,
2013-10-07 00:25:00,49.4,34.3,29.97,SSW,202,0.0,0.0,56,0.00,,,0.00,0,Wunderground v.1.15,2013-10-07 07:25:00,
2013-10-07 00:30:00,49.4,34.3,29.97,SSW,201,0.0,0.0,56,0.00,,,0.00,0,Wunderground v.1.15,2013-10-07 07:30:00,
2013-10-07 00:35:00,49.3,34.3,29.97,SSW,201,0.0,0.0,56,0.00,,,0.00,0,Wunderground v.1.15,2013-10-07 07:35:00,
2013-10-07 00:40:00,49.0,34.4,29.97,SSW,201,0.0,0.0,57,0.00,,,0.00,0,Wunderground v.1.15,2013-10-07 07:40:00,
2013-10-07 00:45:00,48.5,34.4,29.97,SSW,200,0.0,0.0,58,0.00,,,0.00,0,Wunderground v.1.15,2013-10-07 07:45:00,
2013-10-07 00:50:00,48.1,34.4,29.97,SSW,200,0.0,0.0,59,0.00,,,0.00,0,Wunderground v.1.15,2013-10-07 07:50:00,
2013-10-07 01:00:00,48.2,35.4,29.96,SSE,162,0.0,0.0,61,0.00,,,0.00,0,Wunderground v.1.15,2013-10-07 08:00:00,
2013-10-07 01:10:00,49.2,35.5,29.96,SSE,158,1.0,1.0,59,0.00,,,0.00,0,Wunderground v.1.15,2013-10-07 08:10:00,
2013-10-07 01:15:00,49.6,35.4,29.96,SSE,148,1.0,1.0,58,0.00,,,0.00,0,Wunderground v.1.15,2013-10-07 08:15:00,
2013-10-07 01:20:00,49.7,35.5,29.96,SSE,155,0.0,1.0,58,0.00,,,0.00,0,Wunderground v.1.15,2013-10-07 08:20:00,
2013-10-07 01:30:00,50.0,34.9,29.95,SSE,151,1.0,1.0,56,0.00,,,0.00,0,Wunderground v.1.15,2013-10-07 08:30:00,
2013-10-07 01:35:00,50.4,34.8,29.95,SSE,149,2.0,2.0,55,0.00,,,0.00,0,Wunderground v.1.15,2013-10-07 08:35:00,
2013-10-07 01:40:00,50.7,34.6,29.95,SSE,162,1.0,1.0,54,0.00,,,0.00,0,Wunderground v.1.15,2013-10-07 08:40:00,
2013-10-07 01:45:00,51.0,34.5,29.95,SE,145,1.0,1.0,53,0.00,,,0.00,0,Wunderground v.1.15,2013-10-07 08:45:00,
2013-10-07 01:50:00,51.0,34.5,29.95,SSE,151,1.0,4.0,53,0.00,,,0.00,0,Wunderground v.1.15,2013-10-07 08:50:00,
2013-10-07 01:55:00,51.2,34.2,29.94,SSE,153,1.0,4.0,52,0.00,,,0.00,0,Wunderground v.1.15,2013-10-07 08:55:00,
2013-10-07 02:00:00,51.1,34.5,29.95,West,260,1.0,7.0,53,0.00,,,0.00,0,Wunderground v.1.15,2013-10-07 09:00:00,
2013-10-07 02:10:00,51.1,35.0,29.96,WSW,248,4.0,4.0,54,0.00,,,0.00,0,Wunderground v.1.15,2013-10-07 09:10:00,
2013-10-07 02:15:00,50.6,34.6,29.95,WSW,248,1.0,4.0,54,0.00,,,0.00,0,Wunderground v.1.15,2013-10-07 09:15:00,
2013-10-07 02:20:00,50.3,35.2,29.96,WSW,248,0.0,0.0,56,0.00,,,0.00,0,Wunderground v.1.15,2013-10-07 09:20:00,
2013-10-07 02:25:00,49.9,34.4,29.95,South,186,0.0,0.0,55,0.00,,,0.00,0,Wunderground v.1.15,2013-10-07 09:25:00,
2013-10-07 02:30:00,49.7,34.2,29.95,South,186,0.0,0.0,55,0.00,,,0.00,0,Wunderground v.1.15,2013-10-07 09:30:00,
2013-10-07 02:35:00,49.4,34.3,29.94,South,183,0.0,0.0,56,0.00,,,0.00,0,Wunderground v.1.15,2013-10-07 09:35:00,
2013-10-07 02:40:00,49.4,34.3,29.94,South,183,0.0,0.0,56,0.00,,,0.00,0,Wunderground v.1.15,2013-10-07 09:40:00,
2013-10-07 02:45:00,49.3,35.1,29.94,South,183,0.0,0.0,58,0.00,,,0.00,0,Wunderground v.1.15,2013-10-07 09:45:00,
2013-10-07 02:50:00,49.1,34.5,29.94,South,183,0.0,0.0,57,0.00,,,0.00,0,Wunderground v.1.15,2013-10-07 09:50:00,
2013-10-07 02:55:00,48.9,34.8,29.93,South,183,0.0,0.0,58,0.00,,,0.00,0,Wunderground v.1.15,2013-10-07 09:55:00,
2013-10-07 03:00:00,48.7,33.7,29.93,South,183,0.0,0.0,56,0.00,,,0.00,0,Wunderground v.1.15,2013-10-07 10:00:00,
2013-10-07 03:10:00,48.3,33.8,29.93,South,183,0.0,0.0,57,0.00,,,0.00,0,Wunderground v.1.15,2013-10-07 10:10:00,
2013-10-07 03:15:00,48.1,33.6,29.93,South,183,0.0,0.0,57,0.00,,,0.00,0,Wunderground v.1.15,2013-10-07 10:15:00,
2013-10-07 03:20:00,48.0,33.0,29.93,South,183,0.0,0.0,56,0.00,,,0.00,0,Wunderground v.1.15,2013-10-07 10:20:00,
2013-10-07 03:25:00,47.9,33.8,29.93,South,183,0.0,0.0,58,0.00,,,0.00,0,Wunderground v.1.15,2013-10-07 10:25:00,
2013-10-07 03:30:00,47.8,33.7,29.93,South,183,0.0,0.0,58,0.00,,,0.00,0,Wunderground v.1.15,2013-10-07 10:30:00,
2013-10-07 03:40:00,48.5,33.5,29.93,ESE,122,0.0,0.0,56,0.00,,,0.00,0,Wunderground v.1.15,2013-10-07 10:40:00,
2013-10-07 03:45:00,48.8,32.9,29.92,ESE,120,0.0,0.0,54,0.00,,,0.00,0,Wunderground v.1.15,2013-10-07 10:45:00,
2013-10-07 03:50:00,49.6,33.2,29.92,ESE,107,0.0,0.0,53,0.00,,,0.00,0,Wunderground v.1.15,2013-10-07 10:50:00,
2013-10-07 03:55:00,49.6,34.1,29.92,ESE,107,0.0,0.0,55,0.00,,,0.00,0,Wunderground v.1.15,2013-10-07 10:55:00,
2013-10-07 04:00:00,49.4,33.9,29.92,ESE,107,0.0,0.0,55,0.00,,,0.00,0,Wunderground v.1.15,2013-10-07 11:00:00,
2013-10-07 04:10:00,49.1,32.7,29.92,ESE,107,0.0,0.0,53,0.00,,,0.00,0,Wunderground v.1.15,2013-10-07 11:10:00,
2013-10-07 04:15:00,49.3,32.9,29.92,ESE,107,0.0,0.0,53,0.00,,,0.00,0,Wunderground v.1.15,2013-10-07 11:15:00,
2013-10-07 04:20:00,49.8,31.4,29.91,SE,138,0.0,0.0,49,0.00,,,0.00,0,Wunderground v.1.15,2013-10-07 11:20:00,
2013-10-07 04:25:00,50.6,32.6,29.91,SE,135,0.0,0.0,50,0.00,,,0.00,0,Wunderground v.1.15,2013-10-07 11:25:00,
2013-10-07 04:30:00,50.9,32.9,29.92,SE,135,0.0,0.0,50,0.00,,,0.00,0,Wunderground v.1.15,2013-10-07 11:30:00,
2013-10-07 04:35:00,50.9,33.4,29.92,SE,136,0.0,0.0,51,0.00,,,0.00,0,Wunderground v.1.15,2013-10-07 11:35:00,
2013-10-07 04:45:00,50.6,33.1,29.92,SE,136,0.0,0.0,51,0.00,,,0.00,0,Wunderground v.1.15,2013-10-07 11:45:00,
2013-10-07 04:50:00,50.3,31.8,29.91,SE,136,0.0,0.0,49,0.00,,,0.00,0,Wunderground v.1.15,2013-10-07 11:50:00,
2013-10-07 04:55:00,50.3,32.4,29.92,SE,136,0.0,0.0,50,0.00,,,0.00,0,Wunderground v.1.15,2013-10-07 11:55:00,
2013-10-07 05:00:00,50.2,32.3,29.91,SE,136,0.0,0.0,50,0.00,,,0.00,0,Wunderground v.1.15,2013-10-07 12:00:00,
2013-10-07 05:10:00,50.1,33.6,29.91,SE,136,0.0,0.0,53,0.00,,,0.00,0,Wunderground v.1.15,2013-10-07 12:10:00,
2013-10-07 05:15:00,49.9,33.9,29.91,SE,136,0.0,0.0,54,0.00,,,0.00,0,Wunderground v.1.15,2013-10-07 12:15:00,
2013-10-07 05:20:00,49.7,32.3,29.91,SE,136,0.0,0.0,51,0.00,,,0.00,0,Wunderground v.1.15,2013-10-07 12:20:00,
2013-10-07 05:25:00,49.7,34.2,29.91,SSW,192,0.0,0.0,55,0.00,,,0.00,0,Wunderground v.1.15,2013-10-07 12:25:00,
2013-10-07 05:30:00,49.5,32.6,29.90,SSW,192,0.0,0.0,52,0.00,,,0.00,0,Wunderground v.1.15,2013-10-07 12:30:00,
2013-10-07 05:35:00,49.4,33.0,29.90,SSW,192,0.0,0.0,53,0.00,,,0.00,0,Wunderground v.1.15,2013-10-07 12:35:00,
2013-10-07 05:40:00,49.5,31.6,29.91,SSW,192,0.0,0.0,50,0.00,,,0.00,0,Wunderground v.1.15,2013-10-07 12:40:00,
2013-10-07 05:50:00,49.9,32.5,29.91,SSW,192,0.0,0.0,51,0.00,,,0.00,0,Wunderground v.1.15,2013-10-07 12:50:00,
2013-10-07 05:55:00,49.9,33.4,29.91,SSW,192,0.0,0.0,53,0.00,,,0.00,0,Wunderground v.1.15,2013-10-07 12:55:00,
2013-10-07 06:00:00,49.7,33.2,29.91,SSW,192,0.0,0.0,53,0.00,,,0.00,0,Wunderground v.1.15,2013-10-07 13:00:00,
2013-10-07 06:10:00,49.2,32.8,29.90,South,186,0.0,0.0,53,0.00,,,0.00,0,Wunderground v.1.15,2013-10-07 13:10:00,
2013-10-07 06:20:00,49.1,33.2,29.91,South,186,0.0,0.0,54,0.00,,,0.00,0,Wunderground v.1.15,2013-10-07 13:20:00,
2013-10-07 06:25:00,49.0,32.6,29.91,South,186,0.0,0.0,53,0.00,,,0.00,0,Wunderground v.1.15,2013-10-07 13:25:00,
2013-10-07 06:30:00,48.9,33.4,29.92,South,186,0.0,0.0,55,0.00,,,0.00,0,Wunderground v.1.15,2013-10-07 13:30:00,
2013-10-07 06:35:00,48.5,32.6,29.92,SSW,205,0.0,0.0,54,0.00,,,0.00,0,Wunderground v.1.15,2013-10-07 13:35:00,
2013-10-07 06:40:00,48.2,31.9,29.91,SW,234,0.0,0.0,53,0.00,,,0.00,0,Wunderground v.1.15,2013-10-07 13:40:00,
2013-10-07 06:45:00,48.3,31.5,29.91,WSW,241,0.0,0.0,52,0.00,,,0.00,0,Wunderground v.1.15,2013-10-07 13:45:00,
2013-10-07 06:50:00,48.5,31.7,29.91,WNW,292,0.0,3.0,52,0.00,,,0.00,0,Wunderground v.1.15,2013-10-07 13:50:00,
2013-10-07 06:55:00,48.7,33.2,29.92,WNW,294,1.0,3.0,55,0.00,,,0.00,0,Wunderground v.1.15,2013-10-07 13:55:00,
2013-10-07 07:00:00,49.0,34.0,29.92,WNW,294,1.0,4.0,56,0.00,,,0.00,0,Wunderground v.1.15,2013-10-07 14:00:00,
2013-10-07 07:10:00,49.5,34.4,29.91,WNW,294,1.0,1.0,56,0.00,,,0.00,0,Wunderground v.1.15,2013-10-07 14:10:00,
2013-10-07 07:15:00,49.8,35.2,29.91,WNW,295,0.0,1.0,57,0.00,,,0.00,0,Wunderground v.1.15,2013-10-07 14:15:00,
2013-10-07 07:25:00,50.0,35.4,29.92,WNW,295,0.0,0.0,57,0.00,,,0.00,7,Wunderground v.1.15,2013-10-07 14:25:00,
2013-10-07 07:30:00,50.0,35.4,29.91,WNW,295,0.0,0.0,57,0.00,,,0.00,12,Wunderground v.1.15,2013-10-07 14:30:00,
2013-10-07 07:35:00,50.0,35.4,29.92,WNW,295,0.0,0.0,57,0.00,,,0.00,12,Wunderground v.1.15,2013-10-07 14:35:00,
2013-10-07 07:40:00,49.9,35.3,29.92,WNW,295,0.0,0.0,57,0.00,,,0.00,14,Wunderground v.1.15,2013-10-07 14:40:00,
2013-10-07 07:45:00,50.0,35.4,29.92,WNW,295,0.0,0.0,57,0.00,,,0.00,12,Wunderground v.1.15,2013-10-07 14:45:00,
2013-10-07 07:55:00,50.0,35.4,29.91,WNW,295,0.0,0.0,57,0.00,,,0.00,32,Wunderground v.1.15,2013-10-07 14:55:00,
2013-10-07 08:00:00,50.1,35.9,29.92,WNW,294,0.0,0.0,58,0.00,,,0.00,46,Wunderground v.1.15,2013-10-07 15:00:00,
2013-10-07 08:10:00,51.1,35.9,29.92,WNW,294,0.0,0.0,56,0.00,,,0.00,97,Wunderground v.1.15,2013-10-07 15:10:00,
2013-10-07 08:15:00,51.8,35.7,29.92,West,278,0.0,2.0,54,0.00,,,0.00,97,Wunderground v.1.15,2013-10-07 15:15:00,
2013-10-07 08:20:00,52.9,34.8,29.92,West,271,2.0,7.0,50,0.00,,,0.00,79,Wunderground v.1.15,2013-10-07 15:20:00,
2013-10-07 08:30:00,54.0,34.7,29.92,WSW,252,6.0,6.0,48,0.00,,,0.00,167,Wunderground v.1.15,2013-10-07 15:30:00,
2013-10-07 08:35:00,54.1,34.8,29.92,WSW,250,6.0,10.0,48,0.00,,,0.00,79,Wunderground v.1.15,2013-10-07 15:35:00,
2013-10-07 08:40:00,54.0,34.7,29.92,West,265,6.0,9.0,48,0.00,,,0.00,111,Wunderground v.1.15,2013-10-07 15:40:00,
2013-10-07 08:50:00,54.7,35.4,29.92,WNW,284,9.0,9.0,48,0.00,,,0.00,185,Wunderground v.1.15,2013-10-07 15:50:00,
2013-10-07 08:55:00,54.7,35.4,29.93,WSW,254,11.0,13.0,48,0.00,,,0.00,97,Wunderground v.1.15,2013-10-07 15:55:00,
2013-10-07 09:00:00,54.4,36.1,29.93,WSW,246,12.0,12.0,50,0.00,,,0.00,97,Wunderground v.1.15,2013-10-07 16:00:00,
2013-10-07 09:10:00,53.9,36.2,29.93,WSW,247,10.0,10.0,51,0.00,,,0.00,79,Wunderground v.1.15,2013-10-07 16:10:00,
2013-10-07 09:15:00,53.8,36.6,29.93,WSW,251,10.0,10.0,52,0.00,,,0.00,77,Wunderground v.1.15,2013-10-07 16:15:00,
2013-10-07 09:20:00,53.7,37.4,29.93,West,260,9.0,9.0,54,0.00,,,0.00,114,Wunderground v.1.15,2013-10-07 16:20:00,
2013-10-07 09:25:00,53.7,37.9,29.94,SW,235,10.0,10.0,55,0.00,,,0.00,105,Wunderground v.1.15,2013-10-07 16:25:00,
2013-10-07 09:35:00,53.6,38.7,29.94,West,265,10.0,12.0,57,0.00,,,0.00,111,Wunderground v.1.15,2013-10-07 16:35:00,
2013-10-07 09:40:00,53.6,39.2,29.94,WSW,254,9.0,9.0,58,0.00,,,0.00,146,Wunderground v.1.15,2013-10-07 16:40:00,
2013-10-07 09:45:00,53.7,39.3,29.94,West,277,8.0,15.0,58,0.00,,,0.00,186,Wunderground v.1.15,2013-10-07 16:45:00,
2013-10-07 09:50:00,53.8,39.8,29.94,WSW,253,10.0,10.0,59,0.00,,,0.00,179,Wunderground v.1.15,2013-10-07 16:50:00,
2013-10-07 09:55:00,53.9,39.9,29.95,WSW,249,11.0,11.0,59,0.00,,,0.00,234,Wunderground v.1.15,2013-10-07 16:55:00,
2013-10-07 10:00:00,54.1,40.5,29.95,West,261,10.0,13.0,60,0.00,,,0.00,225,Wunderground v.1.15,2013-10-07 17:00:00,
2013-10-07 10:05:00,54.2,41.0,29.95,West,280,10.0,13.0,61,0.00,,,0.00,151,Wunderground v.1.15,2013-10-07 17:05:00,
2013-10-07 10:10:00,54.1,40.9,29.95,WSW,242,11.0,14.0,61,0.00,,,0.00,188,Wunderground v.1.15,2013-10-07 17:10:00,
2013-10-07 10:15:00,53.8,40.7,29.96,West,275,13.0,15.0,61,0.00,,,0.00,218,Wunderground v.1.15,2013-10-07 17:15:00,
2013-10-07 10:20:00,53.5,40.8,29.96,WSW,248,14.0,14.0,62,0.00,,,0.00,251,Wunderground v.1.15,2013-10-07 17:20:00,
2013-10-07 10:25:00,53.5,40.4,29.95,WSW,246,14.0,14.0,61,0.00,,,0.00,234,Wunderground v.1.15,2013-10-07 17:25:00,
2013-10-07 10:30:00,53.4,40.7,29.96,West,269,14.0,14.0,62,0.00,,,0.00,264,Wunderground v.1.15,2013-10-07 17:30:00,
2013-10-07 10:40:00,53.7,40.6,29.95,WNW,289,13.0,13.0,61,0.00,,,0.00,383,Wunderground v.1.15,2013-10-07 17:40:00,
2013-10-07 10:45:00,54.2,41.0,29.95,West,263,14.0,15.0,61,0.00,,,0.00,726,Wunderground v.1.15,2013-10-07 17:45:00,
2013-10-07 10:50:00,55.4,41.3,29.96,WSW,251,13.0,13.0,59,0.00,,,0.00,339,Wunderground v.1.15,2013-10-07 17:50:00,
2013-10-07 10:55:00,55.6,40.6,29.96,West,268,12.0,13.0,57,0.00,,,0.00,287,Wunderground v.1.15,2013-10-07 17:55:00,
2013-10-07 11:00:00,55.1,40.1,29.96,West,281,11.0,11.0,57,0.00,,,0.00,260,Wunderground v.1.15,2013-10-07 18:00:00,
2013-10-07 11:10:00,54.5,39.6,29.96,West,273,10.0,11.0,57,0.00,,,0.00,267,Wunderground v.1.15,2013-10-07 18:10:00,
2013-10-07 11:15:00,54.5,39.6,29.96,West,273,8.0,11.0,57,0.00,,,0.00,262,Wunderground v.1.15,2013-10-07 18:15:00,
2013-10-07 11:20:00,54.4,39.5,29.97,WSW,250,12.0,12.0,57,0.00,,,0.00,239,Wunderground v.1.15,2013-10-07 18:20:00,
2013-10-07 11:25:00,54.1,39.6,29.97,WSW,248,13.0,15.0,58,0.00,,,0.00,251,Wunderground v.1.15,2013-10-07 18:25:00,
2013-10-07 11:30:00,54.1,39.6,29.97,WSW,250,12.0,12.0,58,0.00,,,0.00,260,Wunderground v.1.15,2013-10-07 18:30:00,
2013-10-07 11:35:00,53.9,39.5,29.97,West,278,13.0,14.0,58,0.00,,,0.00,301,Wunderground v.1.15,2013-10-07 18:35:00,
2013-10-07 11:45:00,53.9,39.9,29.98,WSW,252,13.0,17.0,59,0.00,,,0.00,304,Wunderground v.1.15,2013-10-07 18:45:00,
2013-10-07 11:50:00,53.9,40.3,29.98,West,278,13.0,13.0,60,0.00,,,0.00,246,Wunderground v.1.15,2013-10-07 18:50:00,
2013-10-07 11:55:00,53.9,40.3,29.98,WSW,248,13.0,16.0,60,0.00,,,0.00,285,Wunderground v.1.15,2013-10-07 18:55:00,
2013-10-07 12:00:00,53.7,39.7,29.98,WSW,256,12.0,16.0,59,0.00,,,0.00,272,Wunderground v.1.15,2013-10-07 19:00:00,
2013-10-07 12:10:00,53.6,39.6,29.98,WSW,257,9.0,9.0,59,0.00,,,0.00,227,Wunderground v.1.15,2013-10-07 19:10:00,
2013-10-07 12:15:00,54.1,39.6,29.98,WSW,246,8.0,15.0,58,0.00,,,0.00,239,Wunderground v.1.15,2013-10-07 19:15:00,
2013-10-07 12:20:00,55.0,39.6,29.98,WSW,253,11.0,15.0,56,0.00,,,0.00,835,Wunderground v.1.15,2013-10-07 19:20:00,
2013-10-07 12:25:00,55.1,39.2,29.98,WSW,245,14.0,15.0,55,0.00,,,0.00,295,Wunderground v.1.15,2013-10-07 19:25:00,
2013-10-07 12:30:00,54.6,38.7,29.99,WSW,249,12.0,12.0,55,0.00,,,0.00,197,Wunderground v.1.15,2013-10-07 19:30:00,
2013-10-07 12:35:00,54.1,38.3,29.99,WSW,246,13.0,20.0,55,0.00,,,0.00,202,Wunderground v.1.15,2013-10-07 19:35:00,
2013-10-07 12:40:00,53.6,38.3,29.99,WSW,246,15.0,15.0,56,0.00,,,0.00,211,Wunderground v.1.15,2013-10-07 19:40:00,
2013-10-07 12:50:00,53.6,38.7,29.98,WNW,287,13.0,16.0,57,0.00,,,0.00,244,Wunderground v.1.15,2013-10-07 19:50:00,
2013-10-07 12:55:00,53.6,38.7,29.98,WSW,256,13.0,16.0,57,0.00,,,0.00,167,Wunderground v.1.15,2013-10-07 19:55:00,
2013-10-07 13:00:00,53.4,38.5,29.98,SW,227,12.0,15.0,57,0.00,,,0.00,193,Wunderground v.1.15,2013-10-07 20:00:00,
2013-10-07 13:10:00,54.7,38.8,29.98,WSW,242,13.0,15.0,55,0.00,,,0.00,691,Wunderground v.1.15,2013-10-07 20:10:00,
2013-10-07 13:20:00,55.2,39.8,29.98,SW,215,12.0,14.0,56,0.00,,,0.00,726,Wunderground v.1.15,2013-10-07 20:20:00,
2013-10-07 13:25:00,55.7,39.3,29.98,WSW,255,13.0,14.0,54,0.00,,,0.00,701,Wunderground v.1.15,2013-10-07 20:25:00,
2013-10-07 13:30:00,55.9,39.5,29.98,West,271,16.0,16.0,54,0.00,,,0.00,693,Wunderground v.1.15,2013-10-07 20:30:00,
2013-10-07 13:35:00,56.4,40.0,29.98,WNW,288,14.0,16.0,54,0.00,,,0.00,575,Wunderground v.1.15,2013-10-07 20:35:00,
2013-10-07 13:40:00,56.2,39.3,29.99,West,267,15.0,24.0,53,0.00,,,0.00,649,Wunderground v.1.15,2013-10-07 20:40:00,
2013-10-07 13:45:00,55.5,39.1,29.99,WSW,257,19.0,24.0,54,0.00,,,0.00,645,Wunderground v.1.15,2013-10-07 20:45:00,
2013-10-07 13:55:00,55.2,39.8,29.99,WSW,250,17.0,18.0,56,0.00,,,0.00,640,Wunderground v.1.15,2013-10-07 20:55:00,
2013-10-07 14:00:00,55.1,39.7,29.99,West,268,17.0,17.0,56,0.00,,,0.00,700,Wunderground v.1.15,2013-10-07 21:00:00,
2013-10-07 14:10:00,54.2,37.9,29.99,West,268,15.0,18.0,54,0.00,,,0.00,134,Wunderground v.1.15,2013-10-07 21:10:00,
2013-10-07 14:15:00,53.6,37.3,29.99,West,269,17.0,22.0,54,0.00,,,0.00,629,Wunderground v.1.15,2013-10-07 21:15:00,
2013-10-07 14:25:00,54.8,38.0,29.99,WSW,246,17.0,18.0,53,0.00,,,0.00,603,Wunderground v.1.15,2013-10-07 21:25:00,
2013-10-07 14:30:00,54.9,37.1,29.99,WSW,246,17.0,22.0,51,0.00,,,0.00,598,Wunderground v.1.15,2013-10-07 21:30:00,
2013-10-07 14:35:00,54.8,37.0,29.99,WSW,253,18.0,22.0,51,0.00,,,0.00,587,Wunderground v.1.15,2013-10-07 21:35:00,
2013-10-07 14:40:00,55.1,37.3,29.99,SW,226,16.0,17.0,51,0.00,,,0.00,591,Wunderground v.1.15,2013-10-07 21:40:00,
2013-10-07 14:45:00,55.2,37.9,29.99,West,277,16.0,17.0,52,0.00,,,0.00,575,Wunderground v.1.15,2013-10-07 21:45:00,
2013-10-07 14:50:00,55.5,37.7,30.00,WSW,242,17.0,24.0,51,0.00,,,0.00,570,Wunderground v.1.15,2013-10-07 21:50:00,
2013-10-07 14:55:00,54.8,38.5,30.00,West,263,17.0,24.0,54,0.00,,,0.00,563,Wunderground v.1.15,2013-10-07 21:55:00,
2013-10-07 15:00:00,54.5,38.7,30.00,SW,230,16.0,16.0,55,0.00,,,0.00,548,Wunderground v.1.15,2013-10-07 22:00:00,
2013-10-07 15:10:00,54.5,38.2,30.00,WSW,243,14.0,15.0,54,0.00,,,0.00,533,Wunderground v.1.15,2013-10-07 22:10:00,
2013-10-07 15:15:00,54.9,38.6,30.00,WSW,258,14.0,15.0,54,0.00,,,0.00,522,Wunderground v.1.15,2013-10-07 22:15:00,
2013-10-07 15:20:00,55.0,38.2,30.00,WSW,241,13.0,20.0,53,0.00,,,0.00,506,Wunderground v.1.15,2013-10-07 22:20:00,
2013-10-07 15:25:00,54.6,37.8,30.00,West,273,15.0,20.0,53,0.00,,,0.00,497,Wunderground v.1.15,2013-10-07 22:25:00,
2013-10-07 15:30:00,54.3,38.0,30.00,WSW,251,17.0,17.0,54,0.00,,,0.00,485,Wunderground v.1.15,2013-10-07 22:30:00,
2013-10-07 15:35:00,54.2,38.4,30.00,WSW,257,16.0,17.0,55,0.00,,,0.00,476,Wunderground v.1.15,2013-10-07 22:35:00,
2013-10-07 15:40:00,54.3,38.5,30.00,WSW,246,15.0,18.0,55,0.00,,,0.00,468,Wunderground v.1.15,2013-10-07 22:40:00,
2013-10-07 15:45:00,54.2,38.4,30.00,WNW,285,16.0,18.0,55,0.00,,,0.00,454,Wunderground v.1.15,2013-10-07 22:45:00,
2013-10-07 15:50:00,54.1,38.7,30.00,West,261,16.0,18.0,56,0.00,,,0.00,445,Wunderground v.1.15,2013-10-07 22:50:00,
2013-10-07 16:00:00,54.3,38.5,30.01,WNW,286,12.0,12.0,55,0.00,,,0.00,427,Wunderground v.1.15,2013-10-07 23:00:00,
2013-10-07 16:10:00,54.2,37.9,30.01,WSW,246,12.0,12.0,54,0.00,,,0.00,406,Wunderground v.1.15,2013-10-07 23:10:00,
2013-10-07 16:15:00,54.1,38.3,30.01,WSW,257,13.0,13.0,55,0.00,,,0.00,394,Wunderground v.1.15,2013-10-07 23:15:00,
2013-10-07 16:20:00,53.9,38.1,30.02,West,269,14.0,14.0,55,0.00,,,0.00,385,Wunderground v.1.15,2013-10-07 23:20:00,
2013-10-07 16:30:00,53.7,38.4,30.02,WSW,254,13.0,14.0,56,0.00,,,0.00,350,Wunderground v.1.15,2013-10-07 23:30:00,
2013-10-07 16:35:00,53.2,38.4,30.02,WSW,247,14.0,14.0,57,0.00,,,0.00,346,Wunderground v.1.15,2013-10-07 23:35:00,
2013-10-07 16:40:00,53.1,38.7,30.02,SW,234,12.0,14.0,58,0.00,,,0.00,329,Wunderground v.1.15,2013-10-07 23:40:00,
2013-10-07 16:45:00,53.0,38.2,30.02,WSW,242,12.0,19.0,57,0.00,,,0.00,308,Wunderground v.1.15,2013-10-07 23:45:00,
2013-10-07 16:50:00,52.4,38.0,30.02,WSW,238,15.0,15.0,58,0.00,,,0.00,299,Wunderground v.1.15,2013-10-07 23:50:00,
2013-10-07 16:55:00,52.2,38.3,30.02,WSW,257,14.0,15.0,59,0.00,,,0.00,301,Wunderground v.1.15,2013-10-07 23:55:00,
2013-10-07 17:00:00,52.3,39.7,30.02,WSW,238,12.0,16.0,62,0.00,,,0.00,272,Wunderground v.1.15,2013-10-08 00:00:00,
2013-10-07 17:10:00,52.1,38.2,30.02,WSW,243,13.0,14.0,59,0.00,,,0.00,223,Wunderground v.1.15,2013-10-08 00:10:00,
2013-10-07 17:15:00,51.8,37.9,30.02,WSW,247,14.0,15.0,59,0.00,,,0.00,202,Wunderground v.1.15,2013-10-08 00:15:00,
2013-10-07 17:20:00,51.7,37.8,30.02,WSW,238,14.0,16.0,59,0.00,,,0.00,186,Wunderground v.1.15,2013-10-08 00:20:00,
2013-10-07 17:25:00,51.6,37.3,30.02,WSW,242,15.0,16.0,58,0.00,,,0.00,163,Wunderground v.1.15,2013-10-08 00:25:00,
2013-10-07 17:30:00,51.4,37.1,30.02,WSW,241,17.0,17.0,58,0.00,,,0.00,144,Wunderground v.1.15,2013-10-08 00:30:00,
2013-10-07 17:40:00,51.2,37.4,30.02,West,259,14.0,14.0,59,0.00,,,0.00,105,Wunderground v.1.15,2013-10-08 00:40:00,
2013-10-07 17:45:00,51.2,36.9,30.03,WSW,245,12.0,14.0,58,0.00,,,0.00,98,Wunderground v.1.15,2013-10-08 00:45:00,
2013-10-07 17:50:00,51.2,36.9,30.03,WSW,248,12.0,15.0,58,0.00,,,0.00,107,Wunderground v.1.15,2013-10-08 00:50:00,
2013-10-07 17:55:00,50.9,37.1,30.02,WSW,248,12.0,18.0,59,0.00,,,0.00,26,Wunderground v.1.15,2013-10-08 00:55:00,
2013-10-07 18:00:00,50.4,37.0,30.03,SW,235,13.0,18.0,60,0.00,,,0.00,19,Wunderground v.1.15,2013-10-08 01:00:00,
2013-10-07 18:10:00,49.6,37.1,30.03,WSW,250,13.0,13.0,62,0.00,,,0.00,33,Wunderground v.1.15,2013-10-08 01:10:00,
2013-10-07 18:15:00,49.3,37.2,30.03,West,260,12.0,15.0,63,0.00,,,0.00,35,Wunderground v.1.15,2013-10-08 01:15:00,
2013-10-07 18:20:00,49.2,37.5,30.04,WSW,249,13.0,17.0,64,0.00,,,0.00,25,Wunderground v.1.15,2013-10-08 01:20:00,
2013-10-07 18:25:00,49.0,37.7,30.04,WSW,243,15.0,17.0,65,0.00,,,0.00,11,Wunderground v.1.15,2013-10-08 01:25:00,
2013-10-07 18:30:00,48.9,38.0,30.04,WSW,240,15.0,15.0,66,0.00,,,0.00,7,Wunderground v.1.15,2013-10-08 01:30:00,
2013-10-07 18:35:00,48.7,37.8,30.04,WSW,248,14.0,15.0,66,0.00,,,0.00,0,Wunderground v.1.15,2013-10-08 01:35:00,
2013-10-07 18:45:00,48.2,37.8,30.05,WSW,244,9.0,11.0,67,0.00,,,0.00,0,Wunderground v.1.15,2013-10-08 01:45:00,
2013-10-07 18:50:00,48.0,37.9,30.05,WSW,248,7.0,7.0,68,0.00,,,0.00,0,Wunderground v.1.15,2013-10-08 01:50:00,
2013-10-07 18:55:00,47.8,37.7,30.05,WSW,248,7.0,10.0,68,0.00,,,0.00,0,Wunderground v.1.15,2013-10-08 01:55:00,
2013-10-07 19:00:00,47.5,37.8,30.05,WSW,244,8.0,8.0,69,0.00,,,0.00,0,Wunderground v.1.15,2013-10-08 02:00:00,
2013-10-07 19:10:00,47.2,37.9,30.04,SW,225,5.0,6.0,70,0.00,,,0.00,0,Wunderground v.1.15,2013-10-08 02:10:00,
2013-10-07 19:20:00,47.0,37.4,30.04,WSW,240,9.0,15.0,69,0.00,,,0.00,0,Wunderground v.1.15,2013-10-08 02:20:00,
2013-10-07 19:25:00,47.0,37.4,30.04,WSW,251,10.0,15.0,69,0.00,,,0.00,0,Wunderground v.1.15,2013-10-08 02:25:00,
2013-10-07 19:30:00,47.0,37.4,30.04,West,262,10.0,10.0,69,0.00,,,0.00,0,Wunderground v.1.15,2013-10-08 02:30:00,
2013-10-07 19:35:00,46.9,37.3,30.05,WSW,245,5.0,10.0,69,0.00,,,0.00,0,Wunderground v.1.15,2013-10-08 02:35:00,
2013-10-07 19:40:00,46.8,37.2,30.05,WSW,245,2.0,2.0,69,0.00,,,0.00,0,Wunderground v.1.15,2013-10-08 02:40:00,
2013-10-07 19:50:00,46.6,37.0,30.04,WSW,245,0.0,0.0,69,0.00,,,0.00,0,Wunderground v.1.15,2013-10-08 02:50:00,
2013-10-07 19:55:00,46.5,36.9,30.05,WSW,240,2.0,2.0,69,0.00,,,0.00,0,Wunderground v.1.15,2013-10-08 02:55:00,
2013-10-07 20:00:00,46.5,36.9,30.05,WSW,240,2.0,2.0,69,0.00,,,0.00,0,Wunderground v.1.15,2013-10-08 03:00:00,
2013-10-07 20:10:00,46.2,37.0,30.04,SW,223,2.0,4.0,70,0.00,,,0.00,0,Wunderground v.1.15,2013-10-08 03:10:00,
2013-10-07 20:15:00,45.9,36.7,30.04,SSW,211,3.0,4.0,70,0.00,,,0.00,0,Wunderground v.1.15,2013-10-08 03:15:00,
2013-10-07 20:25:00,46.0,36.8,30.04,WSW,257,7.0,13.0,70,0.00,,,0.00,0,Wunderground v.1.15,2013-10-08 03:25:00,
2013-10-07 20:30:00,46.0,36.8,30.04,SW,229,6.0,6.0,70,0.00,,,0.00,0,Wunderground v.1.15,2013-10-08 03:30:00,
2013-10-07 20:35:00,46.0,36.8,30.04,SSW,198,4.0,6.0,70,0.00,,,0.00,0,Wunderground v.1.15,2013-10-08 03:35:00,
2013-10-07 20:40:00,45.8,36.2,30.04,SSW,193,2.0,4.0,69,0.00,,,0.00,0,Wunderground v.1.15,2013-10-08 03:40:00,
2013-10-07 20:45:00,45.4,36.2,30.04,South,186,2.0,4.0,70,0.00,,,0.00,0,Wunderground v.1.15,2013-10-08 03:45:00,
2013-10-07 20:50:00,45.2,36.0,30.05,South,187,1.0,1.0,70,0.00,,,0.00,0,Wunderground v.1.15,2013-10-08 03:50:00,
2013-10-07 20:55:00,45.1,36.3,30.05,South,188,0.0,1.0,71,0.00,,,0.00,0,Wunderground v.1.15,2013-10-08 03:55:00,
2013-10-07 21:00:00,45.0,36.2,30.05,SSW,209,0.0,0.0,71,0.00,,,0.00,0,Wunderground v.1.15,2013-10-08 04:00:00,
2013-10-07 21:05:00,45.1,36.6,30.05,West,260,2.0,11.0,72,0.00,,,0.00,0,Wunderground v.1.15,2013-10-08 04:05:00,
2013-10-07 21:10:00,45.2,36.7,30.05,WSW,245,4.0,12.0,72,0.00,,,0.00,0,Wunderground v.1.15,2013-10-08 04:10:00,
2013-10-07 21:15:00,45.6,37.1,30.05,West,277,7.0,12.0,72,0.00,,,0.00,0,Wunderground v.1.15,2013-10-08 04:15:00,
2013-10-07 21:20:00,45.8,36.9,30.05,WSW,254,6.0,8.0,71,0.00,,,0.00,0,Wunderground v.1.15,2013-10-08 04:20:00,
2013-10-07 21:30:00,45.8,36.9,30.05,WSW,242,4.0,4.0,71,0.00,,,0.00,0,Wunderground v.1.15,2013-10-08 04:30:00,
2013-10-07 21:35:00,45.8,36.9,30.05,WSW,242,2.0,4.0,71,0.00,,,0.00,0,Wunderground v.1.15,2013-10-08 04:35:00,
2013-10-07 21:40:00,45.6,36.7,30.05,WSW,242,2.0,2.0,71,0.00,,,0.00,0,Wunderground v.1.15,2013-10-08 04:40:00,
2013-10-07 21:45:00,45.5,36.6,30.05,WSW,244,4.0,4.0,71,0.00,,,0.00,0,Wunderground v.1.15,2013-10-08 04:45:00,
2013-10-07 21:50:00,45.4,36.5,30.05,WSW,247,5.0,8.0,71,0.00,,,0.00,0,Wunderground v.1.15,2013-10-08 04:50:00,
2013-10-07 22:00:00,45.8,36.6,30.06,WSW,258,9.0,9.0,70,0.00,,,0.00,0,Wunderground v.1.15,2013-10-08 05:00:00,
2013-10-07 22:10:00,46.0,36.8,30.06,WSW,250,3.0,3.0,70,0.00,,,0.00,0,Wunderground v.1.15,2013-10-08 05:10:00,
2013-10-07 22:15:00,45.9,36.7,30.07,WSW,250,0.0,3.0,70,0.00,,,0.00,0,Wunderground v.1.15,2013-10-08 05:15:00,
2013-10-07 22:20:00,45.8,36.6,30.07,WSW,250,0.0,0.0,70,0.00,,,0.00,0,Wunderground v.1.15,2013-10-08 05:20:00,
2013-10-07 22:25:00,45.6,36.0,30.06,WSW,250,0.0,0.0,69,0.00,,,0.00,0,Wunderground v.1.15,2013-10-08 05:25:00,
2013-10-07 22:35:00,45.3,35.4,30.07,West,265,2.0,10.0,68,0.00,,,0.00,0,Wunderground v.1.15,2013-10-08 05:35:00,
2013-10-07 22:40:00,45.4,35.5,30.07,West,279,5.0,5.0,68,0.00,,,0.00,0,Wunderground v.1.15,2013-10-08 05:40:00,
2013-10-07 22:45:00,45.5,35.2,30.07,West,260,5.0,14.0,67,0.00,,,0.00,0,Wunderground v.1.15,2013-10-08 05:45:00,
2013-10-07 22:50:00,45.5,35.2,30.07,WSW,253,6.0,6.0,67,0.00,,,0.00,0,Wunderground v.1.15,2013-10-08 05:50:00,
2013-10-07 22:55:00,45.5,35.2,30.07,WSW,242,7.0,8.0,67,0.00,,,0.00,0,Wunderground v.1.15,2013-10-08 05:55:00,
2013-10-07 23:00:00,45.4,35.5,30.06,WSW,257,7.0,8.0,68,0.00,,,0.00,0,Wunderground v.1.15,2013-10-08 06:00:00,
2013-10-07 23:10:00,45.3,35.0,30.07,WSW,256,9.0,9.0,67,0.00,,,0.00,0,Wunderground v.1.15,2013-10-08 06:10:00,
2013-10-07 23:15:00,45.2,34.9,30.07,WSW,256,7.0,9.0,67,0.00,,,0.00,0,Wunderground v.1.15,2013-10-08 06:15:00,
2013-10-07 23:20:00,45.1,34.8,30.07,SW,234,6.0,8.0,67,0.00,,,0.00,0,Wunderground v.1.15,2013-10-08 06:20:00,
2013-10-07 23:25:00,45.0,34.7,30.07,WSW,255,7.0,8.0,67,0.00,,,0.00,0,Wunderground v.1.15,2013-10-08 06:25:00,
2013-10-07 23:30:00,44.9,35.0,30.07,WSW,255,6.0,7.0,68,0.00,,,0.00,0,Wunderground v.1.15,2013-10-08 06:30:00,
2013-10-07 23:35:00,44.8,34.9,30.07,WSW,251,6.0,7.0,68,0.00,,,0.00,0,Wunderground v.1.15,2013-10-08 06:35:00,
2013-10-07 23:40:00,44.7,35.1,30.07,WSW,252,6.0,7.0,69,0.00,,,0.00,0,Wunderground v.1.15,2013-10-08 06:40:00,
2013-10-07 23:45:00,44.5,35.0,30.07,WSW,253,6.0,7.0,69,0.00,,,0.00,0,Wunderground v.1.15,2013-10-08 06:45:00,
2013-10-07 23:50:00,44.4,34.9,30.08,WSW,258,6.0,6.0,69,0.00,,,0.00,0,Wunderground v.1.15,2013-10-08 06:50:00,
2013-10-07 23:55:00,44.3,35.1,30.08,WSW,248,6.0,6.0,70,0.00,,,0.00,0,Wunderground v.1.15,2013-10-08 06:55:00,